Time,TemperatureF,DewpointF,PressureIn,WindDirection,WindDirectionDegrees,WindSpeedMPH,WindSpeedGustMPH,Humidity,HourlyPrecipIn,Conditions,Clouds,dailyrainin,SoftwareType,DateUTC
2013-04-29 00:01:00,66.3,58.5,29.87,South,177,3.0,5.0,76,0.00,,SKC,0.00,VWS V14.01,2013-04-29 05:01:00,
2013-04-29 00:06:00,66.3,58.9,29.87,SSW,199,6.0,8.0,77,0.00,,SKC,0.00,VWS V14.01,2013-04-29 05:06:00,
2013-04-29 00:11:00,66.3,58.9,29.87,South,186,3.0,6.0,77,0.00,,SKC,0.00,VWS V14.01,2013-04-29 05:11:00,
2013-04-29 00:16:00,66.2,59.2,29.87,South,186,5.0,5.0,78,0.00,,SKC,0.00,VWS V14.01,2013-04-29 05:16:00,
2013-04-29 00:21:00,66.1,59.0,29.87,South,176,2.0,5.0,78,0.00,,SKC,0.00,VWS V14.01,2013-04-29 05:21:00,
2013-04-29 00:26:00,66.0,59.0,29.86,South,177,3.0,4.0,78,0.00,,SKC,0.00,VWS V14.01,2013-04-29 05:26:00,
2013-04-29 00:31:00,65.9,59.2,29.86,South,180,5.0,6.0,79,0.00,,SKC,0.00,VWS V14.01,2013-04-29 05:31:00,
2013-04-29 00:36:00,65.9,59.2,29.86,SSW,205,5.0,6.0,79,0.00,,SKC,0.00,VWS V14.01,2013-04-29 05:36:00,
2013-04-29 00:41:00,65.8,59.1,29.86,South,184,5.0,6.0,79,0.00,,SKC,0.00,VWS V14.01,2013-04-29 05:41:00,
2013-04-29 00:46:00,65.8,59.5,29.86,SSW,192,5.0,10.0,80,0.00,,SKC,0.00,VWS V14.01,2013-04-29 05:46:00,
2013-04-29 00:51:00,65.8,59.5,29.86,South,182,4.0,6.0,80,0.00,,SKC,0.00,VWS V14.01,2013-04-29 05:51:00,
2013-04-29 00:56:00,65.8,59.8,29.86,South,176,6.0,7.0,81,0.00,,SKC,0.00,VWS V14.01,2013-04-29 05:56:00,
2013-04-29 01:01:00,65.7,59.7,29.86,SSW,198,6.0,8.0,81,0.00,,SKC,0.00,VWS V14.01,2013-04-29 06:01:00,
2013-04-29 01:06:00,65.7,60.1,29.86,SSW,200,4.0,8.0,82,0.00,,SKC,0.00,VWS V14.01,2013-04-29 06:06:00,
2013-04-29 01:11:00,65.6,60.0,29.86,SSW,202,4.0,8.0,82,0.00,,SKC,0.00,VWS V14.01,2013-04-29 06:11:00,
2013-04-29 01:16:00,65.5,59.9,29.85,South,183,4.0,7.0,82,0.00,,SKC,0.00,VWS V14.01,2013-04-29 06:16:00,
2013-04-29 01:21:00,65.4,59.8,29.84,South,186,2.0,6.0,82,0.00,,SKC,0.00,VWS V14.01,2013-04-29 06:21:00,
2013-04-29 01:26:00,65.2,59.6,29.84,South,182,4.0,4.0,82,0.00,,SKC,0.00,VWS V14.01,2013-04-29 06:26:00,
2013-04-29 01:31:00,65.0,59.7,29.85,South,178,2.0,5.0,83,0.00,,SKC,0.00,VWS V14.01,2013-04-29 06:31:00,
2013-04-29 01:36:00,64.8,59.5,29.85,South,179,3.0,4.0,83,0.00,,SKC,0.00,VWS V14.01,2013-04-29 06:36:00,
2013-04-29 01:41:00,64.7,59.4,29.85,South,180,3.0,4.0,83,0.00,,SKC,0.00,VWS V14.01,2013-04-29 06:41:00,
2013-04-29 01:46:00,64.7,59.8,29.85,South,179,0.0,1.0,84,0.00,,SKC,0.00,VWS V14.01,2013-04-29 06:46:00,
2013-04-29 01:51:00,64.6,59.7,29.85,South,179,1.0,3.0,84,0.00,,SKC,0.00,VWS V14.01,2013-04-29 06:51:00,
2013-04-29 01:56:00,64.5,59.6,29.85,South,180,1.0,3.0,84,0.00,,SKC,0.00,VWS V14.01,2013-04-29 06:56:00,
2013-04-29 02:01:00,64.5,59.6,29.84,South,180,1.0,2.0,84,0.00,,SKC,0.00,VWS V14.01,2013-04-29 07:01:00,
2013-04-29 02:06:00,64.4,59.8,29.84,South,179,1.0,1.0,85,0.00,,SKC,0.00,VWS V14.01,2013-04-29 07:06:00,
2013-04-29 02:11:00,64.4,59.8,29.84,South,186,4.0,5.0,85,0.00,,SKC,0.00,VWS V14.01,2013-04-29 07:11:00,
2013-04-29 02:16:00,64.4,59.8,29.84,South,182,4.0,4.0,85,0.00,,SKC,0.00,VWS V14.01,2013-04-29 07:16:00,
2013-04-29 02:21:00,64.3,59.7,29.84,South,182,3.0,3.0,85,0.00,,SKC,0.00,VWS V14.01,2013-04-29 07:21:00,
2013-04-29 02:26:00,64.2,59.9,29.84,South,182,2.0,3.0,86,0.00,,SKC,0.00,VWS V14.01,2013-04-29 07:26:00,
2013-04-29 02:31:00,64.1,59.8,29.84,South,175,3.0,4.0,86,0.00,,SKC,0.00,VWS V14.01,2013-04-29 07:31:00,
2013-04-29 02:36:00,64.1,59.8,29.84,South,190,4.0,4.0,86,0.00,,SKC,0.00,VWS V14.01,2013-04-29 07:36:00,
2013-04-29 02:41:00,64.1,59.8,29.83,SSW,200,6.0,7.0,86,0.00,,SKC,0.00,VWS V14.01,2013-04-29 07:41:00,
2013-04-29 02:46:00,64.2,59.9,29.83,South,186,4.0,5.0,86,0.00,,SKC,0.00,VWS V14.01,2013-04-29 07:46:00,
2013-04-29 02:51:00,64.1,59.8,29.83,South,187,6.0,6.0,86,0.00,,SKC,0.00,VWS V14.01,2013-04-29 07:51:00,
2013-04-29 02:56:00,64.1,59.8,29.83,SSW,194,5.0,5.0,86,0.00,,SKC,0.00,VWS V14.01,2013-04-29 07:56:00,
2013-04-29 03:01:00,64.1,60.2,29.83,SSW,203,3.0,6.0,87,0.00,,SKC,0.00,VWS V14.01,2013-04-29 08:01:00,
2013-04-29 03:06:00,64.1,60.2,29.83,SSW,198,3.0,4.0,87,0.00,,SKC,0.00,VWS V14.01,2013-04-29 08:06:00,
2013-04-29 03:11:00,64.0,60.1,29.83,SSW,198,3.0,4.0,87,0.00,,SKC,0.00,VWS V14.01,2013-04-29 08:11:00,
2013-04-29 03:16:00,63.8,59.9,29.83,SSW,198,3.0,4.0,87,0.00,,SKC,0.00,VWS V14.01,2013-04-29 08:16:00,
2013-04-29 03:21:00,63.7,59.8,29.83,SSE,165,4.0,5.0,87,0.00,,SKC,0.00,VWS V14.01,2013-04-29 08:21:00,
2013-04-29 03:26:00,63.5,59.6,29.83,South,182,3.0,5.0,87,0.00,,SKC,0.00,VWS V14.01,2013-04-29 08:26:00,
2013-04-29 03:31:00,63.4,59.5,29.83,South,190,3.0,5.0,87,0.00,,SKC,0.00,VWS V14.01,2013-04-29 08:31:00,
2013-04-29 03:36:00,63.3,59.4,29.83,South,183,2.0,5.0,87,0.00,,SKC,0.00,VWS V14.01,2013-04-29 08:36:00,
2013-04-29 03:41:00,63.3,59.4,29.83,South,178,1.0,1.0,87,0.00,,SKC,0.00,VWS V14.01,2013-04-29 08:41:00,
2013-04-29 03:46:00,63.3,59.7,29.82,SE,144,0.0,2.0,88,0.00,,SKC,0.00,VWS V14.01,2013-04-29 08:46:00,
2013-04-29 03:52:00,63.4,59.8,29.82,SE,146,2.0,3.0,88,0.00,,SKC,0.00,VWS V14.01,2013-04-29 08:52:00,
2013-04-29 03:57:00,63.5,59.9,29.82,SE,145,2.0,2.0,88,0.00,,SKC,0.00,VWS V14.01,2013-04-29 08:57:00,
2013-04-29 04:02:00,63.5,59.9,29.82,SE,144,3.0,3.0,88,0.00,,SKC,0.00,VWS V14.01,2013-04-29 09:02:00,
2013-04-29 04:07:00,63.5,59.9,29.81,SE,142,2.0,3.0,88,0.00,,SKC,0.00,VWS V14.01,2013-04-29 09:07:00,
2013-04-29 04:12:00,63.5,59.9,29.81,SE,143,0.0,1.0,88,0.00,,SKC,0.00,VWS V14.01,2013-04-29 09:12:00,
2013-04-29 04:17:00,63.4,59.8,29.81,SSE,155,3.0,3.0,88,0.00,,SKC,0.00,VWS V14.01,2013-04-29 09:17:00,
2013-04-29 04:22:00,63.3,59.7,29.81,SE,146,6.0,6.0,88,0.00,,SKC,0.00,VWS V14.01,2013-04-29 09:22:00,
2013-04-29 04:27:00,63.2,59.6,29.81,SSE,151,2.0,2.0,88,0.00,,SKC,0.00,VWS V14.01,2013-04-29 09:27:00,
2013-04-29 04:32:00,63.1,59.5,29.81,SSE,155,3.0,3.0,88,0.00,,SKC,0.00,VWS V14.01,2013-04-29 09:32:00,
2013-04-29 04:37:00,63.0,59.4,29.81,SSE,159,5.0,5.0,88,0.00,,SKC,0.00,VWS V14.01,2013-04-29 09:37:00,
2013-04-29 04:42:00,62.9,59.3,29.81,SE,144,2.0,3.0,88,0.00,,SKC,0.00,VWS V14.01,2013-04-29 09:42:00,
2013-04-29 04:47:00,62.9,59.3,29.81,SSE,159,4.0,4.0,88,0.00,,SKC,0.00,VWS V14.01,2013-04-29 09:47:00,
2013-04-29 04:52:00,62.8,59.5,29.81,South,177,3.0,5.0,89,0.00,,SKC,0.00,VWS V14.01,2013-04-29 09:52:00,
2013-04-29 04:57:00,62.7,59.4,29.81,South,179,1.0,3.0,89,0.00,,SKC,0.00,VWS V14.01,2013-04-29 09:57:00,
2013-04-29 05:02:00,62.5,59.2,29.81,South,178,2.0,4.0,89,0.00,,SKC,0.00,VWS V14.01,2013-04-29 10:02:00,
2013-04-29 05:07:00,62.4,59.1,29.81,South,178,2.0,3.0,89,0.00,,SKC,0.00,VWS V14.01,2013-04-29 10:07:00,
2013-04-29 05:12:00,62.3,59.0,29.81,South,179,5.0,5.0,89,0.00,,SKC,0.00,VWS V14.01,2013-04-29 10:12:00,
2013-04-29 05:17:00,62.2,58.9,29.81,South,179,3.0,5.0,89,0.00,,SKC,0.00,VWS V14.01,2013-04-29 10:17:00,
2013-04-29 05:22:00,62.1,58.8,29.81,South,179,1.0,1.0,89,0.00,,SKC,0.00,VWS V14.01,2013-04-29 10:22:00,
2013-04-29 05:27:00,62.0,58.7,29.81,South,179,0.0,1.0,89,0.00,,SKC,0.00,VWS V14.01,2013-04-29 10:27:00,
2013-04-29 05:32:00,62.1,58.8,29.82,South,180,2.0,4.0,89,0.00,,SKC,0.00,VWS V14.01,2013-04-29 10:32:00,
2013-04-29 05:37:00,62.2,58.9,29.82,South,179,1.0,3.0,89,0.00,,SKC,0.00,VWS V14.01,2013-04-29 10:37:00,
2013-04-29 05:42:00,62.2,59.2,29.82,South,180,2.0,5.0,90,0.00,,SKC,0.00,VWS V14.01,2013-04-29 10:42:00,
2013-04-29 05:47:00,62.2,59.2,29.82,South,180,4.0,4.0,90,0.00,,SKC,0.00,VWS V14.01,2013-04-29 10:47:00,
2013-04-29 05:52:00,62.2,59.2,29.82,South,179,2.0,5.0,90,0.00,,SKC,0.00,VWS V14.01,2013-04-29 10:52:00,
2013-04-29 05:57:00,62.2,59.2,29.82,South,179,4.0,5.0,90,0.00,,SKC,0.00,VWS V14.01,2013-04-29 10:57:00,
2013-04-29 06:02:00,62.2,59.2,29.82,South,179,4.0,6.0,90,0.00,,SKC,0.00,VWS V14.01,2013-04-29 11:02:00,
2013-04-29 06:07:00,62.2,59.2,29.82,South,179,3.0,4.0,90,0.00,,SKC,0.00,VWS V14.01,2013-04-29 11:07:00,
2013-04-29 06:12:00,62.1,59.1,29.82,South,180,4.0,4.0,90,0.00,,SKC,0.00,VWS V14.01,2013-04-29 11:12:00,
2013-04-29 06:17:00,62.2,59.2,29.82,South,181,2.0,7.0,90,0.00,,SKC,0.00,VWS V14.01,2013-04-29 11:17:00,
2013-04-29 06:22:00,62.2,59.2,29.82,South,180,4.0,4.0,90,0.00,,SKC,0.00,VWS V14.01,2013-04-29 11:22:00,
2013-04-29 06:27:00,62.2,59.2,29.83,South,180,1.0,3.0,90,0.00,,SKC,0.00,VWS V14.01,2013-04-29 11:27:00,
2013-04-29 06:32:00,62.2,59.2,29.83,South,180,4.0,4.0,90,0.00,,SKC,0.00,VWS V14.01,2013-04-29 11:32:00,
2013-04-29 06:37:00,62.2,59.2,29.83,South,181,2.0,5.0,90,0.00,,SKC,0.00,VWS V14.01,2013-04-29 11:37:00,
2013-04-29 06:42:00,62.2,59.2,29.83,South,181,3.0,4.0,90,0.00,,SKC,0.00,VWS V14.01,2013-04-29 11:42:00,
2013-04-29 06:47:00,62.1,59.1,29.83,South,182,2.0,3.0,90,0.00,,SKC,0.00,VWS V14.01,2013-04-29 11:47:00,
2013-04-29 06:52:00,62.1,59.1,29.83,South,182,3.0,3.0,90,0.00,,SKC,0.00,VWS V14.01,2013-04-29 11:52:00,
2013-04-29 06:57:00,62.0,59.0,29.83,South,182,3.0,3.0,90,0.00,,SKC,0.00,VWS V14.01,2013-04-29 11:57:00,
2013-04-29 07:02:00,62.0,59.0,29.83,South,182,4.0,4.0,90,0.00,,SKC,0.00,VWS V14.01,2013-04-29 12:02:00,
2013-04-29 07:07:00,62.0,59.0,29.83,South,186,3.0,6.0,90,0.00,,SKC,0.00,VWS V14.01,2013-04-29 12:07:00,
2013-04-29 07:12:00,62.1,59.1,29.84,South,187,7.0,10.0,90,0.00,,SKC,0.00,VWS V14.01,2013-04-29 12:12:00,
2013-04-29 07:17:00,62.1,59.1,29.84,South,183,2.0,4.0,90,0.00,,SKC,0.00,VWS V14.01,2013-04-29 12:17:00,
2013-04-29 07:22:00,62.1,59.1,29.84,SSW,204,8.0,11.0,90,0.00,,SKC,0.00,VWS V14.01,2013-04-29 12:22:00,
2013-04-29 07:27:00,62.2,59.2,29.84,SSW,206,6.0,11.0,90,0.00,,SKC,0.00,VWS V14.01,2013-04-29 12:27:00,
2013-04-29 07:32:00,62.2,59.2,29.85,SSW,201,11.0,11.0,90,0.00,,SKC,0.00,VWS V14.01,2013-04-29 12:32:00,
2013-04-29 07:37:00,62.3,59.3,29.85,SSW,201,7.0,13.0,90,0.00,,SKC,0.00,VWS V14.01,2013-04-29 12:37:00,
2013-04-29 07:42:00,62.5,59.5,29.85,South,182,5.0,7.0,90,0.00,,SKC,0.00,VWS V14.01,2013-04-29 12:42:00,
2013-04-29 07:47:00,62.5,59.5,29.85,SSW,192,6.0,9.0,90,0.00,,SKC,0.00,VWS V14.01,2013-04-29 12:47:00,
2013-04-29 07:52:00,62.6,59.6,29.85,SSW,205,3.0,7.0,90,0.00,,SKC,0.00,VWS V14.01,2013-04-29 12:52:00,
2013-04-29 07:57:00,62.8,59.8,29.85,SSW,201,2.0,3.0,90,0.00,,SKC,0.00,VWS V14.01,2013-04-29 12:57:00,
2013-04-29 08:02:00,63.0,60.0,29.85,SSW,195,5.0,7.0,90,0.00,,SKC,0.00,VWS V14.01,2013-04-29 13:02:00,
2013-04-29 08:07:00,63.1,60.1,29.85,SSW,196,5.0,6.0,90,0.00,,SKC,0.00,VWS V14.01,2013-04-29 13:07:00,
2013-04-29 08:12:00,63.4,60.4,29.85,SSW,198,7.0,7.0,90,0.00,,SKC,0.00,VWS V14.01,2013-04-29 13:12:00,
2013-04-29 08:17:00,63.6,60.6,29.85,SSW,198,6.0,12.0,90,0.00,,SKC,0.00,VWS V14.01,2013-04-29 13:17:00,
2013-04-29 08:22:00,63.9,60.9,29.85,South,191,8.0,13.0,90,0.00,,SKC,0.00,VWS V14.01,2013-04-29 13:22:00,
2013-04-29 08:27:00,64.2,60.9,29.85,SW,215,3.0,11.0,89,0.00,,SKC,0.00,VWS V14.01,2013-04-29 13:27:00,
2013-04-29 08:32:00,64.3,61.0,29.85,SSW,203,7.0,9.0,89,0.00,,SKC,0.00,VWS V14.01,2013-04-29 13:32:00,
2013-04-29 08:37:00,64.5,61.2,29.85,SSW,198,5.0,9.0,89,0.00,,SKC,0.00,VWS V14.01,2013-04-29 13:37:00,
2013-04-29 08:42:00,64.8,61.2,29.85,SW,217,1.0,7.0,88,0.00,,SKC,0.00,VWS V14.01,2013-04-29 13:42:00,
2013-04-29 08:47:00,65.1,61.5,29.85,SSW,200,2.0,4.0,88,0.00,,SKC,0.00,VWS V14.01,2013-04-29 13:47:00,
2013-04-29 08:52:00,65.3,61.3,29.85,South,190,7.0,7.0,87,0.00,,SKC,0.00,VWS V14.01,2013-04-29 13:52:00,
2013-04-29 08:57:00,65.9,61.9,29.85,SSW,198,1.0,7.0,87,0.00,,SKC,0.00,VWS V14.01,2013-04-29 13:57:00,
2013-04-29 09:02:00,66.4,62.1,29.85,WSW,240,5.0,5.0,86,0.00,,SKC,0.00,VWS V14.01,2013-04-29 14:02:00,
2013-04-29 09:07:00,66.3,61.3,29.85,SSW,205,2.0,3.0,84,0.00,,SKC,0.00,VWS V14.01,2013-04-29 14:07:00,
2013-04-29 09:12:00,66.2,61.2,29.85,SSW,206,4.0,4.0,84,0.00,,SKC,0.00,VWS V14.01,2013-04-29 14:12:00,
2013-04-29 09:17:00,66.3,61.3,29.85,SSW,205,3.0,7.0,84,0.00,,SKC,0.00,VWS V14.01,2013-04-29 14:17:00,
2013-04-29 09:22:00,66.9,61.6,29.85,SSW,211,2.0,11.0,83,0.00,,SKC,0.00,VWS V14.01,2013-04-29 14:22:00,
2013-04-29 09:27:00,67.6,61.9,29.85,West,273,4.0,7.0,82,0.00,,SKC,0.00,VWS V14.01,2013-04-29 14:27:00,
2013-04-29 09:32:00,68.0,61.2,29.85,SSW,205,2.0,7.0,79,0.00,,SKC,0.00,VWS V14.01,2013-04-29 14:32:00,
2013-04-29 09:37:00,67.8,61.1,29.85,SSW,195,1.0,7.0,79,0.00,,SKC,0.00,VWS V14.01,2013-04-29 14:37:00,
2013-04-29 09:42:00,67.6,60.5,29.85,SSW,192,6.0,8.0,78,0.00,,SKC,0.00,VWS V14.01,2013-04-29 14:42:00,
2013-04-29 09:47:00,67.4,60.3,29.85,SW,214,5.0,6.0,78,0.00,,SKC,0.00,VWS V14.01,2013-04-29 14:47:00,
2013-04-29 09:52:00,67.6,60.1,29.85,SSW,195,10.0,11.0,77,0.00,,SKC,0.00,VWS V14.01,2013-04-29 14:52:00,
2013-04-29 09:57:00,67.4,60.0,29.85,SSW,192,5.0,8.0,77,0.00,,SKC,0.00,VWS V14.01,2013-04-29 14:57:00,
2013-04-29 10:02:00,68.3,60.8,29.85,SSW,193,0.0,4.0,77,0.00,,SKC,0.00,VWS V14.01,2013-04-29 15:02:00,
2013-04-29 10:07:00,68.8,60.2,29.85,SSW,204,4.0,6.0,74,0.00,,SKC,0.00,VWS V14.01,2013-04-29 15:07:00,
2013-04-29 10:12:00,68.8,60.2,29.85,SSW,207,2.0,5.0,74,0.00,,SKC,0.00,VWS V14.01,2013-04-29 15:12:00,
2013-04-29 10:17:00,68.5,60.3,29.85,SSW,196,5.0,6.0,75,0.00,,SKC,0.00,VWS V14.01,2013-04-29 15:17:00,
2013-04-29 10:22:00,68.8,60.6,29.85,SSW,194,3.0,5.0,75,0.00,,SKC,0.00,VWS V14.01,2013-04-29 15:22:00,
2013-04-29 10:27:00,69.6,60.6,29.85,South,186,4.0,9.0,73,0.00,,SKC,0.00,VWS V14.01,2013-04-29 15:27:00,
2013-04-29 10:32:00,70.3,60.9,29.85,SSE,158,6.0,6.0,72,0.00,,SKC,0.00,VWS V14.01,2013-04-29 15:32:00,
2013-04-29 10:37:00,70.5,60.3,29.85,SSW,199,5.0,10.0,70,0.00,,SKC,0.00,VWS V14.01,2013-04-29 15:37:00,
2013-04-29 10:42:00,71.4,60.3,29.85,SSW,196,9.0,13.0,68,0.00,,SKC,0.00,VWS V14.01,2013-04-29 15:42:00,
2013-04-29 10:47:00,72.1,60.5,29.85,South,184,7.0,12.0,67,0.00,,SKC,0.00,VWS V14.01,2013-04-29 15:47:00,
2013-04-29 10:52:00,72.6,60.6,29.85,South,173,2.0,11.0,66,0.00,,SKC,0.00,VWS V14.01,2013-04-29 15:52:00,
2013-04-29 10:57:00,73.1,60.7,29.85,SSW,206,10.0,10.0,65,0.00,,SKC,0.00,VWS V14.01,2013-04-29 15:57:00,
2013-04-29 11:02:00,73.6,59.8,29.85,South,171,9.0,12.0,62,0.00,,SKC,0.00,VWS V14.01,2013-04-29 16:02:00,
2013-04-29 11:07:00,73.5,59.2,29.85,South,173,8.0,13.0,61,0.00,,SKC,0.00,VWS V14.01,2013-04-29 16:07:00,
2013-04-29 11:12:00,74.1,59.8,29.85,SSE,164,12.0,14.0,61,0.00,,SKC,0.00,VWS V14.01,2013-04-29 16:12:00,
2013-04-29 11:17:00,73.6,59.8,29.85,South,173,4.0,9.0,62,0.00,,SKC,0.00,VWS V14.01,2013-04-29 16:17:00,
2013-04-29 11:22:00,73.9,59.2,29.85,SSE,166,3.0,9.0,60,0.00,,SKC,0.00,VWS V14.01,2013-04-29 16:22:00,
2013-04-29 11:27:00,73.7,59.0,29.85,South,177,8.0,10.0,60,0.00,,SKC,0.00,VWS V14.01,2013-04-29 16:27:00,
2013-04-29 11:32:00,74.0,59.7,29.85,South,188,15.0,15.0,61,0.00,,SKC,0.00,VWS V14.01,2013-04-29 16:32:00,
2013-04-29 11:37:00,74.3,60.0,29.85,SE,124,6.0,10.0,61,0.00,,SKC,0.00,VWS V14.01,2013-04-29 16:37:00,
2013-04-29 11:42:00,75.3,60.0,29.85,South,186,5.0,9.0,59,0.00,,SKC,0.00,VWS V14.01,2013-04-29 16:42:00,
2013-04-29 11:47:00,75.5,60.2,29.85,South,178,3.0,13.0,59,0.00,,SKC,0.00,VWS V14.01,2013-04-29 16:47:00,
2013-04-29 11:52:00,75.0,60.2,29.85,South,179,4.0,7.0,60,0.00,,SKC,0.00,VWS V14.01,2013-04-29 16:52:00,
2013-04-29 11:57:00,74.6,59.3,29.85,South,186,10.0,10.0,59,0.00,,SKC,0.00,VWS V14.01,2013-04-29 16:57:00,
2013-04-29 12:02:00,75.1,59.8,29.85,SE,132,6.0,6.0,59,0.00,,SKC,0.00,VWS V14.01,2013-04-29 17:02:00,
2013-04-29 12:07:00,75.4,59.1,29.84,SSE,167,3.0,3.0,57,0.00,,SKC,0.00,VWS V14.01,2013-04-29 17:07:00,
2013-04-29 12:12:00,76.0,59.7,29.84,SSW,200,4.0,9.0,57,0.00,,SKC,0.00,VWS V14.01,2013-04-29 17:12:00,
2013-04-29 12:17:00,76.5,60.2,29.84,SE,144,6.0,6.0,57,0.00,,SKC,0.00,VWS V14.01,2013-04-29 17:17:00,
2013-04-29 12:22:00,76.8,59.9,29.84,SSW,199,4.0,6.0,56,0.00,,SKC,0.00,VWS V14.01,2013-04-29 17:22:00,
2013-04-29 12:27:00,76.9,59.5,29.84,South,169,7.0,8.0,55,0.00,,SKC,0.00,VWS V14.01,2013-04-29 17:27:00,
2013-04-29 12:32:00,76.6,59.2,29.84,SSE,161,5.0,10.0,55,0.00,,SKC,0.00,VWS V14.01,2013-04-29 17:32:00,
2013-04-29 12:37:00,76.8,58.9,29.83,South,184,1.0,4.0,54,0.00,,SKC,0.00,VWS V14.01,2013-04-29 17:37:00,
2013-04-29 12:42:00,76.8,59.4,29.83,SSW,195,6.0,7.0,55,0.00,,SKC,0.00,VWS V14.01,2013-04-29 17:42:00,
2013-04-29 12:47:00,77.3,59.4,29.83,SSE,165,9.0,9.0,54,0.00,,SKC,0.00,VWS V14.01,2013-04-29 17:47:00,
2013-04-29 12:52:00,77.9,58.3,29.83,SE,128,5.0,10.0,51,0.00,,SKC,0.00,VWS V14.01,2013-04-29 17:52:00,
2013-04-29 12:57:00,77.5,58.5,29.83,South,184,5.0,7.0,52,0.00,,SKC,0.00,VWS V14.01,2013-04-29 17:57:00,
2013-04-29 13:02:00,77.4,58.4,29.82,South,178,1.0,9.0,52,0.00,,SKC,0.00,VWS V14.01,2013-04-29 18:02:00,
2013-04-29 13:07:00,78.1,60.1,29.82,SSW,201,6.0,7.0,54,0.00,,SKC,0.00,VWS V14.01,2013-04-29 18:07:00,
2013-04-29 13:12:00,78.7,59.6,29.82,SSW,207,10.0,10.0,52,0.00,,SKC,0.00,VWS V14.01,2013-04-29 18:12:00,
2013-04-29 13:17:00,79.2,58.4,29.82,SSW,192,10.0,10.0,49,0.00,,SKC,0.00,VWS V14.01,2013-04-29 18:17:00,
2013-04-29 13:22:00,78.2,58.1,29.81,South,188,7.0,9.0,50,0.00,,SKC,0.00,VWS V14.01,2013-04-29 18:22:00,
2013-04-29 13:27:00,78.7,59.1,29.81,SSE,154,9.0,9.0,51,0.00,,SKC,0.00,VWS V14.01,2013-04-29 18:27:00,
2013-04-29 13:32:00,78.4,59.9,29.80,ESE,117,3.0,4.0,53,0.00,,SKC,0.00,VWS V14.01,2013-04-29 18:32:00,
2013-04-29 13:37:00,79.1,59.4,29.80,South,186,6.0,12.0,51,0.00,,SKC,0.00,VWS V14.01,2013-04-29 18:37:00,
2013-04-29 13:42:00,78.9,58.7,29.80,South,173,5.0,10.0,50,0.00,,SKC,0.00,VWS V14.01,2013-04-29 18:42:00,
2013-04-29 13:47:00,78.7,58.5,29.80,South,170,1.0,6.0,50,0.00,,SKC,0.00,VWS V14.01,2013-04-29 18:47:00,
2013-04-29 13:52:00,78.7,58.5,29.80,SSE,164,9.0,13.0,50,0.00,,SKC,0.00,VWS V14.01,2013-04-29 18:52:00,
2013-04-29 13:57:00,78.4,59.3,29.79,SSE,150,6.0,11.0,52,0.00,,SKC,0.00,VWS V14.01,2013-04-29 18:57:00,
2013-04-29 14:02:00,78.3,58.2,29.79,SE,138,9.0,12.0,50,0.00,,SKC,0.00,VWS V14.01,2013-04-29 19:02:00,
2013-04-29 14:07:00,78.9,58.7,29.79,SSE,150,12.0,15.0,50,0.00,,SKC,0.00,VWS V14.01,2013-04-29 19:07:00,
2013-04-29 14:12:00,80.3,60.0,29.78,SE,145,3.0,6.0,50,0.00,,SKC,0.00,VWS V14.01,2013-04-29 19:12:00,
2013-04-29 14:17:00,80.2,58.2,29.79,SSW,209,12.0,16.0,47,0.00,,SKC,0.00,VWS V14.01,2013-04-29 19:17:00,
2013-04-29 14:22:00,79.8,57.2,29.78,SE,144,3.0,11.0,46,0.00,,SKC,0.00,VWS V14.01,2013-04-29 19:22:00,
2013-04-29 14:27:00,78.7,57.4,29.78,SSW,205,5.0,11.0,48,0.00,,SKC,0.00,VWS V14.01,2013-04-29 19:27:00,
2013-04-29 14:32:00,78.9,58.7,29.78,South,180,2.0,8.0,50,0.00,,SKC,0.00,VWS V14.01,2013-04-29 19:32:00,
2013-04-29 14:37:00,80.3,58.8,29.77,SSE,165,8.0,8.0,48,0.00,,SKC,0.00,VWS V14.01,2013-04-29 19:37:00,
2013-04-29 14:42:00,80.2,58.2,29.77,SSW,204,5.0,12.0,47,0.00,,SKC,0.00,VWS V14.01,2013-04-29 19:42:00,
2013-04-29 14:47:00,78.9,58.1,29.77,South,190,2.0,8.0,49,0.00,,SKC,0.00,VWS V14.01,2013-04-29 19:47:00,
2013-04-29 14:52:00,79.9,58.5,29.77,South,180,5.0,9.0,48,0.00,,SKC,0.00,VWS V14.01,2013-04-29 19:52:00,
2013-04-29 14:57:00,79.8,60.1,29.77,SSE,164,12.0,18.0,51,0.00,,SKC,0.00,VWS V14.01,2013-04-29 19:57:00,
2013-04-29 15:02:00,79.6,58.2,29.77,SSW,200,9.0,12.0,48,0.00,,SKC,0.00,VWS V14.01,2013-04-29 20:02:00,
2013-04-29 15:07:00,80.5,58.4,29.76,South,185,2.0,11.0,47,0.00,,SKC,0.00,VWS V14.01,2013-04-29 20:07:00,
2013-04-29 15:12:00,80.7,59.8,29.76,South,176,6.0,7.0,49,0.00,,SKC,0.00,VWS V14.01,2013-04-29 20:12:00,
2013-04-29 15:17:00,80.4,58.9,29.76,South,174,7.0,12.0,48,0.00,,SKC,0.00,VWS V14.01,2013-04-29 20:17:00,
2013-04-29 15:22:00,80.1,58.1,29.76,South,183,7.0,16.0,47,0.00,,SKC,0.00,VWS V14.01,2013-04-29 20:22:00,
2013-04-29 15:27:00,78.7,58.0,29.75,South,183,7.0,11.0,49,0.00,,SKC,0.00,VWS V14.01,2013-04-29 20:27:00,
2013-04-29 15:32:00,78.0,57.3,29.75,South,184,7.0,12.0,49,0.00,,SKC,0.00,VWS V14.01,2013-04-29 20:32:00,
2013-04-29 15:37:00,77.9,58.3,29.75,South,186,4.0,5.0,51,0.00,,SKC,0.00,VWS V14.01,2013-04-29 20:37:00,
2013-04-29 15:42:00,77.8,61.9,29.74,SSE,159,5.0,5.0,58,0.01,,SKC,0.01,VWS V14.01,2013-04-29 20:42:00,
2013-04-29 15:47:00,76.5,62.1,29.75,SSW,192,4.0,5.0,61,0.01,,SKC,0.01,VWS V14.01,2013-04-29 20:47:00,
2013-04-29 15:52:00,75.6,62.1,29.74,South,191,0.0,2.0,63,0.01,,SKC,0.01,VWS V14.01,2013-04-29 20:52:00,
2013-04-29 15:57:00,75.1,60.8,29.74,SSW,206,2.0,5.0,61,0.01,,SKC,0.01,VWS V14.01,2013-04-29 20:57:00,
2013-04-29 16:02:00,75.0,61.1,29.73,SSE,165,0.0,4.0,62,0.02,,SKC,0.02,VWS V14.01,2013-04-29 21:02:00,
2013-04-29 16:07:00,75.0,62.9,29.73,SSE,165,1.0,3.0,66,0.02,,SKC,0.02,VWS V14.01,2013-04-29 21:07:00,
2013-04-29 16:12:00,75.0,61.6,29.73,SSE,165,2.0,2.0,63,0.02,,SKC,0.02,VWS V14.01,2013-04-29 21:12:00,
2013-04-29 16:17:00,75.1,61.2,29.72,SSE,165,1.0,3.0,62,0.02,,SKC,0.02,VWS V14.01,2013-04-29 21:17:00,
2013-04-29 16:22:00,75.4,61.5,29.72,East,84,2.0,4.0,62,0.02,,SKC,0.02,VWS V14.01,2013-04-29 21:22:00,
2013-04-29 16:27:00,75.7,61.3,29.72,SE,134,1.0,2.0,61,0.02,,SKC,0.02,VWS V14.01,2013-04-29 21:27:00,
2013-04-29 16:32:00,76.4,61.5,29.72,SE,135,2.0,2.0,60,0.02,,SKC,0.02,VWS V14.01,2013-04-29 21:32:00,
2013-04-29 16:37:00,76.9,60.0,29.71,SE,137,0.0,2.0,56,0.02,,SKC,0.02,VWS V14.01,2013-04-29 21:37:00,
2013-04-29 16:42:00,77.3,59.4,29.71,SSE,157,3.0,6.0,54,0.02,,SKC,0.02,VWS V14.01,2013-04-29 21:42:00,
2013-04-29 16:47:00,77.7,59.2,29.71,South,171,1.0,5.0,53,0.01,,SKC,0.02,VWS V14.01,2013-04-29 21:47:00,
2013-04-29 16:52:00,78.0,58.4,29.71,SSW,201,4.0,7.0,51,0.01,,SKC,0.02,VWS V14.01,2013-04-29 21:52:00,
2013-04-29 16:57:00,78.2,58.6,29.71,SSW,195,5.0,9.0,51,0.01,,SKC,0.02,VWS V14.01,2013-04-29 21:57:00,
2013-04-29 17:02:00,78.7,60.2,29.71,SSW,210,1.0,4.0,53,0.01,,SKC,0.02,VWS V14.01,2013-04-29 22:02:00,
2013-04-29 17:07:00,79.3,58.5,29.70,South,180,1.0,4.0,49,0.00,,SKC,0.02,VWS V14.01,2013-04-29 22:07:00,
2013-04-29 17:12:00,79.2,57.8,29.70,SSE,158,5.0,5.0,48,0.00,,SKC,0.02,VWS V14.01,2013-04-29 22:12:00,
2013-04-29 17:17:00,79.2,57.8,29.70,SSE,167,0.0,4.0,48,0.00,,SKC,0.02,VWS V14.01,2013-04-29 22:17:00,
2013-04-29 17:22:00,79.0,58.2,29.70,SE,144,3.0,6.0,49,0.00,,SKC,0.02,VWS V14.01,2013-04-29 22:22:00,
2013-04-29 17:27:00,78.7,58.0,29.70,SSE,165,3.0,3.0,49,0.00,,SKC,0.02,VWS V14.01,2013-04-29 22:27:00,
2013-04-29 17:32:00,78.7,58.5,29.70,SSE,163,3.0,3.0,50,0.00,,SKC,0.02,VWS V14.01,2013-04-29 22:32:00,
2013-04-29 17:37:00,78.7,58.5,29.69,SSE,155,1.0,4.0,50,0.00,,SKC,0.02,VWS V14.01,2013-04-29 22:37:00,
2013-04-29 17:42:00,78.6,57.9,29.70,SSE,152,3.0,9.0,49,0.00,,SKC,0.02,VWS V14.01,2013-04-29 22:42:00,
2013-04-29 17:47:00,78.7,58.5,29.70,ESE,107,2.0,3.0,50,0.00,,SKC,0.02,VWS V14.01,2013-04-29 22:47:00,
2013-04-29 17:52:00,79.2,57.8,29.70,SSE,154,3.0,4.0,48,0.00,,SKC,0.02,VWS V14.01,2013-04-29 22:52:00,
2013-04-29 17:57:00,79.1,57.8,29.70,SSE,159,2.0,5.0,48,0.00,,SKC,0.02,VWS V14.01,2013-04-29 22:57:00,
2013-04-29 18:02:00,79.4,58.6,29.70,South,186,8.0,12.0,49,0.00,,SKC,0.02,VWS V14.01,2013-04-29 23:02:00,
2013-04-29 18:07:00,80.1,58.7,29.70,SSE,152,5.0,6.0,48,0.00,,SKC,0.02,VWS V14.01,2013-04-29 23:07:00,
2013-04-29 18:12:00,80.4,59.5,29.70,ESE,109,3.0,8.0,49,0.00,,SKC,0.02,VWS V14.01,2013-04-29 23:12:00,
2013-04-29 18:17:00,80.1,58.7,29.70,South,183,10.0,10.0,48,0.00,,SKC,0.02,VWS V14.01,2013-04-29 23:17:00,
2013-04-29 18:22:00,79.8,58.4,29.69,SSE,150,6.0,7.0,48,0.00,,SKC,0.02,VWS V14.01,2013-04-29 23:22:00,
2013-04-29 18:27:00,79.0,57.7,29.70,ESE,107,4.0,5.0,48,0.00,,SKC,0.02,VWS V14.01,2013-04-29 23:27:00,
2013-04-29 18:32:00,78.7,58.0,29.70,ESE,111,4.0,5.0,49,0.00,,SKC,0.02,VWS V14.01,2013-04-29 23:32:00,
2013-04-29 18:37:00,78.6,58.4,29.70,ESE,111,4.0,9.0,50,0.00,,SKC,0.02,VWS V14.01,2013-04-29 23:37:00,
2013-04-29 18:42:00,78.0,57.9,29.69,ESE,106,2.0,4.0,50,0.00,,SKC,0.02,VWS V14.01,2013-04-29 23:42:00,
2013-04-29 18:47:00,77.8,58.2,29.70,South,175,2.0,4.0,51,0.00,,SKC,0.02,VWS V14.01,2013-04-29 23:47:00,
2013-04-29 18:52:00,77.7,57.6,29.70,SSE,157,3.0,7.0,50,0.00,,SKC,0.02,VWS V14.01,2013-04-29 23:52:00,
2013-04-29 18:57:00,77.5,57.4,29.70,SSE,152,2.0,4.0,50,0.00,,SKC,0.02,VWS V14.01,2013-04-29 23:57:00,
2013-04-29 19:02:00,77.4,57.9,29.70,SE,136,0.0,1.0,51,0.00,,SKC,0.02,VWS V14.01,2013-04-30 00:02:00,
2013-04-29 19:07:00,77.2,58.8,29.70,ESE,117,1.0,4.0,53,0.00,,SKC,0.02,VWS V14.01,2013-04-30 00:07:00,
2013-04-29 19:12:00,76.9,57.4,29.70,SE,129,2.0,5.0,51,0.00,,SKC,0.02,VWS V14.01,2013-04-30 00:12:00,
2013-04-29 19:17:00,76.8,57.9,29.70,SE,138,0.0,0.0,52,0.00,,SKC,0.02,VWS V14.01,2013-04-30 00:17:00,
2013-04-29 19:22:00,76.6,57.7,29.70,East,96,1.0,3.0,52,0.00,,SKC,0.02,VWS V14.01,2013-04-30 00:22:00,
2013-04-29 19:27:00,76.4,59.1,29.71,East,79,8.0,12.0,55,0.00,,SKC,0.02,VWS V14.01,2013-04-30 00:27:00,
2013-04-29 19:32:00,74.9,59.1,29.71,East,87,5.0,6.0,58,0.00,,SKC,0.02,VWS V14.01,2013-04-30 00:32:00,
2013-04-29 19:37:00,74.0,58.8,29.71,East,88,5.0,9.0,59,0.00,,SKC,0.02,VWS V14.01,2013-04-30 00:37:00,
2013-04-29 19:42:00,73.4,58.2,29.71,ENE,78,7.0,7.0,59,0.00,,SKC,0.02,VWS V14.01,2013-04-30 00:42:00,
2013-04-29 19:47:00,72.6,57.5,29.71,East,100,7.0,10.0,59,0.00,,SKC,0.02,VWS V14.01,2013-04-30 00:47:00,
2013-04-29 19:52:00,71.5,58.7,29.73,SE,125,8.0,10.0,64,0.00,,SKC,0.02,VWS V14.01,2013-04-30 00:52:00,
2013-04-29 19:57:00,70.3,59.7,29.74,ESE,118,7.0,7.0,69,0.00,,SKC,0.02,VWS V14.01,2013-04-30 00:57:00,
2013-04-29 20:02:00,68.5,59.1,29.74,ESE,117,15.0,15.0,72,0.00,,SKC,0.02,VWS V14.01,2013-04-30 01:02:00,
2013-04-29 20:07:00,66.7,58.5,29.74,ESE,120,12.0,12.0,75,0.00,,SKC,0.02,VWS V14.01,2013-04-30 01:07:00,
2013-04-29 20:12:00,64.2,56.5,29.74,SE,144,10.0,10.0,76,0.02,,SKC,0.04,VWS V14.01,2013-04-30 01:12:00,
2013-04-29 20:17:00,62.0,55.8,29.75,SE,145,12.0,12.0,80,0.08,,SKC,0.10,VWS V14.01,2013-04-30 01:17:00,
2013-04-29 20:22:00,60.0,55.2,29.76,SSE,155,12.0,15.0,84,0.25,,SKC,0.27,VWS V14.01,2013-04-30 01:22:00,
2013-04-29 20:27:00,59.5,55.0,29.76,SSE,148,7.0,14.0,85,0.48,,SKC,0.50,VWS V14.01,2013-04-30 01:27:00,
2013-04-29 20:32:00,59.2,55.0,29.75,SE,137,7.0,7.0,86,0.59,,SKC,0.61,VWS V14.01,2013-04-30 01:32:00,
2013-04-29 20:38:00,59.9,56.0,29.76,South,178,10.0,12.0,87,0.63,,SKC,0.65,VWS V14.01,2013-04-30 01:38:00,
2013-04-29 20:43:00,60.8,57.2,29.76,South,171,5.0,7.0,88,0.63,,SKC,0.65,VWS V14.01,2013-04-30 01:43:00,
2013-04-29 20:48:00,61.2,57.6,29.77,South,173,7.0,9.0,88,0.63,,SKC,0.65,VWS V14.01,2013-04-30 01:48:00,
2013-04-29 20:53:00,61.2,57.6,29.77,SSE,166,10.0,12.0,88,0.63,,SKC,0.65,VWS V14.01,2013-04-30 01:53:00,
2013-04-29 20:58:00,61.4,58.1,29.78,SSE,165,6.0,9.0,89,0.64,,SKC,0.66,VWS V14.01,2013-04-30 01:58:00,
2013-04-29 21:03:00,61.4,58.1,29.78,South,182,8.0,8.0,89,0.64,,SKC,0.66,VWS V14.01,2013-04-30 02:03:00,
2013-04-29 21:08:00,61.4,58.1,29.78,SE,144,6.0,8.0,89,0.64,,SKC,0.66,VWS V14.01,2013-04-30 02:08:00,
2013-04-29 21:13:00,61.4,58.1,29.78,SE,140,5.0,5.0,89,0.62,,SKC,0.66,VWS V14.01,2013-04-30 02:13:00,
2013-04-29 21:18:00,61.4,58.1,29.78,SE,141,6.0,13.0,89,0.56,,SKC,0.66,VWS V14.01,2013-04-30 02:18:00,
2013-04-29 21:23:00,61.5,58.2,29.78,SSE,148,6.0,6.0,89,0.32,,SKC,0.66,VWS V14.01,2013-04-30 02:23:00,
2013-04-29 21:28:00,61.5,58.2,29.78,SSE,153,9.0,10.0,89,0.14,,SKC,0.66,VWS V14.01,2013-04-30 02:28:00,
2013-04-29 21:33:00,61.4,58.1,29.78,SSE,150,7.0,11.0,89,0.04,,SKC,0.66,VWS V14.01,2013-04-30 02:33:00,
2013-04-29 21:38:00,61.4,58.1,29.78,SE,129,12.0,12.0,89,0.01,,SKC,0.66,VWS V14.01,2013-04-30 02:38:00,
2013-04-29 21:43:00,61.5,58.2,29.78,SSE,155,4.0,4.0,89,0.01,,SKC,0.66,VWS V14.01,2013-04-30 02:43:00,
2013-04-29 21:48:00,61.5,58.2,29.78,SSE,152,8.0,12.0,89,0.01,,SKC,0.66,VWS V14.01,2013-04-30 02:48:00,
2013-04-29 21:53:00,61.6,58.6,29.79,SSE,153,5.0,10.0,90,0.01,,SKC,0.66,VWS V14.01,2013-04-30 02:53:00,
2013-04-29 21:58:00,61.6,58.6,29.79,SSE,153,5.0,7.0,90,0.00,,SKC,0.66,VWS V14.01,2013-04-30 02:58:00,
2013-04-29 22:03:00,61.6,58.6,29.79,SSE,163,5.0,6.0,90,0.00,,SKC,0.66,VWS V14.01,2013-04-30 03:03:00,
2013-04-29 22:09:00,61.7,58.7,29.79,ESE,113,6.0,7.0,90,0.00,,SKC,0.66,VWS V14.01,2013-04-30 03:09:00,
2013-04-29 22:14:00,61.7,58.7,29.79,SSE,150,2.0,4.0,90,0.00,,SKC,0.66,VWS V14.01,2013-04-30 03:14:00,
2013-04-29 22:19:00,61.7,58.7,29.79,SSE,161,5.0,5.0,90,0.00,,SKC,0.66,VWS V14.01,2013-04-30 03:19:00,
2013-04-29 22:24:00,61.8,58.8,29.79,SSE,154,4.0,9.0,90,0.00,,SKC,0.66,VWS V14.01,2013-04-30 03:24:00,
2013-04-29 22:29:00,61.8,58.8,29.78,SSE,163,5.0,6.0,90,0.00,,SKC,0.66,VWS V14.01,2013-04-30 03:29:00,
2013-04-29 22:34:00,61.8,58.8,29.79,South,178,4.0,4.0,90,0.00,,SKC,0.66,VWS V14.01,2013-04-30 03:34:00,
2013-04-29 22:38:00,61.8,58.8,29.79,SSW,201,8.0,10.0,90,0.00,,SKC,0.66,VWS V14.01,2013-04-30 03:38:00,
2013-04-29 22:43:00,61.8,58.8,29.79,South,183,11.0,11.0,90,0.00,,SKC,0.66,VWS V14.01,2013-04-30 03:43:00,
2013-04-29 22:49:00,61.8,58.8,29.79,SSE,167,6.0,10.0,90,0.00,,SKC,0.66,VWS V14.01,2013-04-30 03:49:00,
2013-04-29 22:54:00,61.8,58.8,29.79,SSE,167,2.0,5.0,90,0.00,,SKC,0.66,VWS V14.01,2013-04-30 03:54:00,
2013-04-29 22:59:00,61.8,58.8,29.79,SSE,161,3.0,3.0,90,0.00,,SKC,0.66,VWS V14.01,2013-04-30 03:59:00,
2013-04-29 23:01:00,61.7,58.7,29.79,SE,142,6.0,6.0,90,0.00,,SKC,0.66,VWS V14.01,2013-04-30 04:01:00,
2013-04-29 23:06:00,61.6,58.6,29.79,SSE,168,2.0,5.0,90,0.00,,SKC,0.66,VWS V14.01,2013-04-30 04:06:00,
2013-04-29 23:11:00,61.5,58.5,29.79,SSE,167,0.0,2.0,90,0.00,,SKC,0.66,VWS V14.01,2013-04-30 04:11:00,
2013-04-29 23:16:00,61.4,58.5,29.79,SSE,166,3.0,3.0,90,0.00,,SKC,0.66,VWS V14.01,2013-04-30 04:16:00,
2013-04-29 23:21:00,61.3,58.3,29.79,SSE,167,0.0,0.0,90,0.00,,SKC,0.66,VWS V14.01,2013-04-30 04:21:00,
2013-04-29 23:26:00,61.3,58.3,29.78,SSE,167,1.0,1.0,90,0.00,,SKC,0.66,VWS V14.01,2013-04-30 04:26:00,
2013-04-29 23:31:00,61.2,58.9,29.78,SSE,167,3.0,4.0,92,0.00,,SKC,0.66,VWS V14.01,2013-04-30 04:31:00,
2013-04-29 23:36:00,61.2,58.2,29.78,SSE,167,3.0,3.0,90,0.00,,SKC,0.66,VWS V14.01,2013-04-30 04:36:00,
2013-04-29 23:41:00,61.2,58.2,29.78,SSE,167,0.0,1.0,90,0.00,,SKC,0.66,VWS V14.01,2013-04-30 04:41:00,
2013-04-29 23:46:00,61.2,58.2,29.77,SSE,167,0.0,0.0,90,0.00,,SKC,0.66,VWS V14.01,2013-04-30 04:46:00,
2013-04-29 23:51:00,61.1,58.2,29.77,SSE,167,0.0,0.0,90,0.00,,SKC,0.66,VWS V14.01,2013-04-30 04:51:00,
2013-04-29 23:56:00,60.9,58.0,29.77,SSE,167,0.0,0.0,90,0.00,,SKC,0.66,VWS V14.01,2013-04-30 04:56:00,